Terminal Aerodrome Forecast
Issued by NWS St Louis, MO

Home | Current Version | Previous Version | Text Only | Print | Product List | Glossary On
Versions: 1 2 3 4 5 6 7 8 9 10 11 12 13 14 15 16 17 18 19 20 21 22
249
FTUS43 KLSX 250506 AAC
TAFCOU
TAF AMD
KCOU 250506Z 2505/2524 VRB04KT 6SM -TSRA OVC050CB
      TEMPO 2505/2507 25020G35KT 1SM +TSRA BKN025CB
     FM250800 36005KT P6SM BKN060
     FM252000 03008KT P6SM SCT200=

USA.gov is the U.S. government's official web portal to all federal, state and local government web resources and services.